Tracking 29892 objects as of 21-Nov-2024
HD Live streaming from Space Station
objects crossing your sky now

STARLINK-31883

Track STARLINK-31883 now!
10-day predictions
STARLINK-31883 is classified as:


NORAD ID: 60020
Int'l Code: 2024-111E
Perigee: 481.5 km
Apogee: 483.4 km
Inclination: 53.2 °
Period: 94.1 minutes
Semi major axis: 6853 km
RCS: Unknown
Launch date: June 8, 2024
Source: United States (US)
Launch site: AIR FORCE EASTERN TEST RANGE (AFETR)
Your satellite tracking list
Your tracking list is empty




NASA's NSSDC Master Catalog

Two Line Element Set (TLE):
1 60020U 24111E   24325.91668981  .00047616  00000-0  16110-2 0  9996
2 60020  53.1581 116.5555 0001418  99.4188 221.9617 15.30169884  5934
Source of the keplerian elements: AFSPC